Back to catalog

FENGYUN 1C DEB

LostSSO
NORAD 38490·DEBRIS·🇨🇳 China

Launched May 10, 1999 from Taiyuan Satellite Launch Center

Loading…

Next Passes (next 24 hours)

TLE

StaleSource: Space-Track

Epoch: Jan 2, 2015, 10:42 UTC

1 38490U 99025ERZ 15002.44632846  .00001048  00000-0  67131-3 0  9998
2 38490  99.1386  78.7395 0050824  70.6028 290.0622 14.04970804222254

Track FENGYUN 1C DEB in real time with AllMySat

Download on the App Store